STARLINK-1699 (46548 NORAD) Tracking and Keplerian Element Data

This shows tracking and keplerian element data for the satellite.

Feedback or suggestion? Click here.




ElementValue
Catalog46548
NameSTARLINK-1699
Epoch Orbit988
Epoch Day339.00002315
Epoch Year2020
RAAN163.4104
Inclination53.0007
Eccentricity0.0001476
Argument of Perigee71.6165
Mean Anonmoly317.7269
Mean Motion15.05564961
Decay Rate0.00036178
L11 46548U 20070S 20339.00002315 .00036178 00000-0 24904-2 0 9990
L22 46548 53.0007 163.4104 0001476 71.6165 317.7269 15.05564961 9889

Live tracking and technical data element details for STARLINK-1699 (NORAD 46548). STARLINK-1699 can be tracked NOW for your location showing map with azimuth and elevation plus other details from your city location.

Track the satellite on the map from your city or location and see movement details for azimuth, elevation, latitude, longitude, range, height, and movement on the map or in text.







IsCatalogInMostPopularTable: catalog: 46548, numindb: 12
Update: records affected: 1



GetName: 46548 STARLINK-1699

Hit Count: updated at: Sun, 06 Dec 2020 01:33:10 GMT